Theta_e
323 322 322 321 321 322 322 322 323 326 334 336 338 340 336 335 335 336 335 334 333 333 331 331 332 330 328 326 326 325 324 323 324 325 324 324 323 323 321 321 321 321 321
322 323 320 320 323 324 324 325 325 325 328 333 335 339 334 333 333 334 335 334 333 331 330 331 331 329 327 325 325 323 321 321 323 324 323 323 322 322 321 321 320 319 320
319 319 319 323 324 324 325 326 326 327 328 332 336 335 333 332 332 332 334 334 332 331 331 331 329 328 327 325 323 321 321 321 322 322 322 323 324 322 321 320 320 321 320
317 319 322 323 324 325 325 328 327 327 329 332 334 333 333 332 331 332 333 333 332 331 330 329 328 327 325 323 321 321 321 320 321 320 320 320 321 323 323 321 320 321 320
322 322 323 323 322 322 324 327 329 329 329 331 334 332 332 332 333 333 332 331 331 329 329 328 327 326 324 323 322 321 320 319 319 320 321 320 321 321 322 322 321 320 319
322 322 322 321 321 322 323 325 328 329 329 330 332 333 331 334 333 333 333 330 330 330 328 327 326 325 325 323 322 321 320 318 318 319 320 321 321 321 322 322 321 320 320
321 321 321 321 320 321 323 323 324 328 329 330 330 332 331 334 334 334 333 331 329 329 327 326 325 324 323 323 321 320 319 319 319 320 320 321 321 321 320 320 320 320 318
321 321 321 322 321 321 322 322 324 325 329 329 327 330 330 332 334 332 330 329 327 328 326 325 324 324 323 322 321 320 319 319 319 320 319 320 321 320 320 320 320 320 319
320 321 321 321 321 320 319 320 321 324 326 328 327 328 329 331 332 332 331 328 326 326 326 324 323 322 322 321 320 319 319 319 319 319 320 319 319 320 320 318 318 320 322
320 321 321 319 318 317 316 318 320 324 325 327 326 327 327 330 331 330 329 327 325 325 325 323 323 322 321 320 319 319 319 319 319 319 319 319 319 319 319 316 320 319 319
321 320 319 317 316 315 314 315 316 324 326 326 325 325 325 328 330 329 327 325 324 324 324 324 322 321 320 319 318 318 319 319 319 319 318 318 319 318 318 318 317 316 318
320 319 319 317 316 313 311 310 309 321 326 325 324 323 323 327 328 327 324 324 324 324 323 324 322 320 320 318 317 317 317 318 319 319 319 318 318 317 318 318 318 316 316
318 317 316 315 314 312 309 306 305 308 323 323 322 322 322 326 326 325 322 322 324 323 322 322 322 319 319 318 317 317 316 317 317 318 318 318 317 316 315 314 315 315 316
314 313 312 311 311 309 306 303 302 306 323 322 322 323 324 325 323 322 322 321 323 322 321 320 320 318 319 318 317 316 315 315 316 317 317 316 316 316 316 315 315 314 315
310 310 308 307 307 305 302 300 301 304 320 322 322 321 322 322 322 321 321 321 322 322 320 319 319 319 318 317 316 316 315 315 315 315 316 316 315 315 315 314 314 314 315
306 305 304 303 303 301 298 297 298 299 306 320 319 319 320 321 322 321 320 320 321 321 321 319 319 319 319 318 317 316 315 314 314 314 314 315 314 314 313 312 315 314 314
303 301 300 299 298 297 295 296 296 297 310 319 318 318 318 320 320 320 320 320 320 320 321 321 321 320 320 317 317 316 316 314 313 313 314 314 313 314 313 314 314 314 314
300 297 296 295 295 294 294 294 294 296 311 313 316 318 318 318 319 319 320 320 320 320 320 320 320 320 320 318 317 316 316 316 315 314 314 314 314 313 313 314 313 312 311
296 294 294 292 292 291 292 293 292 292 296 298 300 303 313 318 319 319 319 319 320 320 319 319 319 319 318 318 317 316 316 316 315 315 314 314 314 313 314 314 311 302 298
294 293 292 291 290 289 291 292 291 290 291 292 293 295 299 305 310 313 317 318 320 318 315 314 313 315 314 315 316 316 315 315 314 313 312 314 314 314 314 314 310 296 290
291 291 291 290 289 289 290 290 290 289 290 291 292 292 293 294 297 301 307 310 313 311 306 304 300 301 301 304 310 313 312 313 310 305 303 303 306 312 311 306 297 290 285
290 290 290 289 288 288 289 290 289 289 289 289 291 290 291 291 292 294 294 295 295 295 292 291 289 289 291 295 300 306 307 306 303 292 291 291 295 296 296 295 290 288 288
288 288 287 288 287 288 288 289 290 289 289 288 287 287 288 288 288 290 290 290 290 289 287 286 284 283 284 285 288 291 293 292 289 285 282 283 286 285 282 280 281 284 283
288 286 286 286 285 286 287 288 290 290 289 288 287 286 285 285 285 285 286 287 287 286 285 284 283 283 282 282 282 282 282 283 283 282 282 281 280 280 281 281 281 280 280
287 286 286 285 284 284 284 286 287 289 288 287 287 286 285 284 284 283 284 283 284 284 284 284 283 283 282 283 282 282 282 281 281 282 283 282 282 281 281 281 281 280 280
288 286 285 285 284 284 284 284 286 287 287 287 286 285 285 284 284 283 282 282 283 283 283 283 283 282 283 283 283 283 284 284 285 285 285 284 283 283 282 281 281 280 280
Wind_Speed
14 18 16 4 8 13 14 16 17 19 22 24 26 27 26 25 25 24 21 20 21 21 24 21 19 22 21 23 23 25 28 25 34 27 23 22 20 19 19 21 20 20 21
17 16 9 9 10 14 14 17 17 19 23 24 26 24 23 24 23 23 22 22 22 21 22 21 22 26 24 21 23 27 19 15 27 19 15 5 9 15 19 14 22 23 21
16 13 8 8 10 13 10 13 17 19 21 23 18 19 20 21 23 26 24 24 23 22 22 20 21 25 25 25 28 30 29 21 27 20 8 5 3 13 17 21 21 25 22
7 6 8 9 7 8 7 11 14 17 20 23 23 26 23 22 24 22 24 23 24 23 21 22 25 27 27 27 31 33 33 29 31 24 14 10 15 7 5 17 20 22 22
10 9 6 5 6 6 8 10 13 15 19 22 26 26 26 25 22 23 23 24 22 25 23 21 24 27 30 32 35 33 31 30 32 32 25 18 18 23 10 9 16 22 24
7 5 3 4 8 6 9 12 13 16 18 21 25 25 27 27 25 23 23 21 20 22 26 24 26 25 28 32 35 36 33 33 28 29 29 20 19 20 14 8 13 15 21
3 2 3 6 11 11 11 14 16 16 18 21 24 24 29 30 25 23 21 20 20 20 25 28 27 26 25 30 32 35 35 35 32 27 27 25 20 21 18 18 15 12 15
4 3 6 9 13 14 17 19 20 21 19 21 23 25 27 27 24 21 21 20 18 19 23 31 26 27 25 25 31 32 32 34 34 30 30 29 22 22 22 17 18 10 15
3 7 8 12 16 19 22 24 22 27 23 21 23 25 26 25 23 22 20 18 16 17 21 24 23 24 25 25 29 30 31 35 36 37 37 36 28 21 21 20 22 13 6
6 8 8 13 17 20 25 25 26 33 28 22 24 25 25 25 23 21 22 18 16 17 18 24 28 28 27 30 31 29 30 32 33 32 31 28 27 31 23 17 14 19 14
6 6 8 12 17 20 24 25 27 31 24 22 25 25 26 26 23 22 20 18 18 17 18 18 22 26 28 32 32 29 29 30 29 29 34 31 26 26 24 22 26 20 14
14 12 13 17 18 22 26 24 26 24 11 20 22 23 26 25 24 21 20 19 19 17 16 17 19 23 27 31 33 29 29 29 25 29 31 32 29 25 27 19 18 26 23
12 13 14 15 18 21 25 25 26 30 13 18 20 23 26 25 22 19 20 20 18 17 15 14 14 19 25 27 29 31 31 31 31 29 31 31 33 31 27 23 13 14 12
11 11 13 14 18 22 24 26 27 31 13 18 19 20 21 19 22 20 20 21 19 17 15 14 14 15 20 22 26 28 26 27 27 26 31 31 34 33 31 27 23 16 11
12 13 14 15 18 23 25 27 24 25 11 18 19 19 22 18 19 19 20 20 18 17 15 14 13 14 14 16 21 24 25 24 24 27 28 29 30 32 30 27 26 25 22
12 13 14 16 17 24 26 27 25 26 26 18 18 21 22 20 20 19 18 20 18 18 17 15 14 14 13 15 17 19 22 25 25 23 27 30 32 31 32 36 30 33 26
13 14 15 15 21 24 26 25 25 35 20 18 19 21 19 17 17 18 18 18 19 18 17 16 14 13 12 14 19 18 16 21 23 23 22 24 27 32 33 31 27 27 28
13 13 13 19 23 25 24 24 30 33 10 10 10 15 19 17 16 15 17 16 16 18 18 16 15 12 11 13 13 15 18 20 21 22 22 23 26 30 31 29 27 25 24
12 14 18 20 22 24 24 24 30 28 20 18 15 13 13 14 16 15 15 15 15 14 15 15 14 13 9 11 12 14 18 17 20 23 25 25 25 30 32 32 28 19 13
15 16 18 20 22 28 27 24 27 26 21 18 16 18 16 15 13 10 11 10 12 12 15 13 11 11 9 12 16 18 21 22 10 17 18 26 26 24 31 36 34 26 21
16 16 15 18 22 27 27 22 24 25 24 15 30 29 23 20 12 11 9 10 17 20 19 18 14 10 4 3 12 17 17 21 17 6 2 1 6 16 19 28 26 23 22
17 17 15 17 23 25 24 18 22 22 17 16 34 29 34 23 21 23 20 18 21 27 22 21 21 20 18 13 7 2 10 12 13 18 18 17 12 14 15 16 20 24 25
16 16 16 17 19 22 21 19 22 22 23 36 34 32 29 27 25 30 24 25 25 23 19 20 20 21 25 31 29 23 22 24 29 31 34 34 32 32 33 29 29 27 26
16 16 16 17 19 21 21 21 20 19 23 30 33 30 33 35 31 33 31 26 21 20 18 19 19 18 21 23 24 29 33 35 37 33 32 31 34 34 34 30 26 26 24
15 16 16 17 19 20 21 22 24 19 24 25 21 22 26 34 36 40 32 31 30 22 21 21 20 18 20 19 22 26 28 29 31 31 29 27 29 26 26 26 23 22 21
15 16 18 18 18 18 20 22 21 22 21 21 20 23 26 28 29 30 36 43 40 38 35 32 32 31 30 29 29 29 28 27 23 25 24 23 21 20 20 18 18 18 16
Wind_Direction
232 228 229 187 221 249 254 246 239 229 214 217 218 213 203 212 212 210 205 205 207 212 214 219 220 210 202 211 212 201 194 191 190 169 174 179 185 183 179 178 165 175 177
238 229 220 219 233 249 254 252 244 239 225 220 221 212 202 212 214 206 204 204 203 206 214 216 217 213 209 211 211 197 173 185 169 171 140 143 188 178 177 204 174 181 185
243 226 181 223 239 246 258 266 255 246 230 226 209 204 206 213 211 207 205 208 207 206 213 210 208 210 212 209 200 189 174 172 174 166 159 143 164 154 184 204 192 167 186
216 197 191 217 237 261 287 290 272 249 234 222 209 207 205 204 210 211 205 205 206 206 210 210 213 210 212 200 189 185 181 175 182 190 188 183 157 165 163 204 204 172 191
180 184 197 239 268 291 300 298 284 258 239 223 221 205 212 215 215 211 207 207 205 204 204 204 209 207 200 201 194 191 188 195 189 184 181 189 173 179 156 182 201 188 198
168 201 231 267 276 319 319 303 286 265 242 224 221 204 207 219 212 207 202 200 200 202 208 208 209 201 200 203 203 198 193 189 192 188 187 183 187 190 162 171 197 194 187
177 246 290 317 321 301 304 307 295 269 247 227 226 206 203 222 221 202 198 196 194 196 199 203 201 212 212 207 203 199 196 191 188 181 174 182 191 172 175 187 180 181 196
162 270 348 346 327 321 316 310 300 286 250 231 224 220 208 226 223 195 202 202 201 203 201 203 210 213 213 206 204 197 192 190 185 171 177 177 191 185 200 180 167 185 196
358 3 354 2 338 327 317 307 296 282 266 231 220 218 215 223 204 199 198 196 194 198 197 197 198 203 212 206 201 191 187 189 190 196 196 198 197 193 214 189 176 177 179
356 344 358 357 338 327 318 307 295 281 258 225 213 213 207 208 209 192 195 191 187 188 189 201 202 201 202 201 195 191 191 191 196 200 197 194 204 205 207 221 193 183 188
307 335 5 347 337 334 328 317 311 288 242 208 204 206 193 202 210 191 188 182 180 185 187 190 198 201 200 199 196 194 195 195 199 198 195 197 195 202 216 214 216 221 237
27 355 345 334 336 339 337 328 319 319 218 199 197 193 193 208 205 184 186 175 172 181 184 188 195 199 203 200 197 198 199 197 192 194 195 195 194 198 208 212 219 198 218
4 349 336 333 331 340 338 332 323 336 223 200 187 195 201 215 188 179 180 172 169 173 176 184 184 190 195 197 202 205 206 206 204 198 191 194 195 200 205 208 229 225 203
1 340 338 334 330 338 339 333 322 336 218 189 194 194 192 192 174 179 175 167 173 171 171 174 185 191 201 207 207 207 205 205 202 201 199 191 194 200 208 215 233 232 225
350 340 341 338 337 338 340 330 322 327 230 191 184 176 179 176 179 177 171 167 172 171 173 166 177 173 179 193 202 205 202 201 204 207 205 200 202 203 209 215 218 216 212
344 342 347 341 340 337 339 325 328 329 322 171 167 168 179 180 177 174 169 166 170 174 170 168 175 178 181 194 197 198 201 205 204 202 212 216 219 211 223 224 224 224 217
345 355 352 345 342 339 338 329 340 330 301 165 166 172 173 171 163 166 169 173 172 172 180 174 180 184 183 200 194 201 199 204 206 209 211 211 216 215 220 220 222 226 233
358 1 354 347 348 342 343 339 10 349 18 97 137 176 172 163 163 162 171 178 178 174 176 177 189 195 202 214 211 210 208 208 206 207 210 210 214 219 220 213 213 222 231
9 2 355 355 346 353 348 4 19 358 6 47 44 51 107 145 157 169 173 173 171 171 173 180 192 190 187 208 226 219 216 217 217 219 221 218 218 229 225 219 210 199 185
18 6 2 3 359 357 359 17 21 3 6 20 41 46 58 85 103 120 136 139 171 148 147 130 128 153 166 203 217 217 223 222 203 204 209 220 221 227 232 223 210 180 176
17 11 12 8 8 2 7 17 26 13 1 13 55 54 55 54 77 102 111 127 127 130 118 113 101 96 93 252 233 227 219 230 217 187 141 244 276 230 216 204 192 172 168
18 14 19 14 15 12 6 9 37 25 15 35 55 48 54 43 58 77 82 97 112 108 103 101 84 73 64 54 45 188 208 203 162 103 101 104 115 128 147 143 142 144 142
16 17 21 17 16 15 17 11 18 22 32 43 43 48 54 49 53 62 64 65 78 79 78 80 76 66 71 75 83 97 115 120 109 103 96 97 106 108 101 102 122 128 125
22 17 22 22 16 13 14 18 22 43 51 45 40 43 51 51 47 55 57 60 61 73 79 81 80 77 72 78 85 92 96 103 105 103 98 97 99 99 101 100 104 108 106
22 25 25 27 22 13 18 20 17 34 53 60 60 60 62 67 63 61 60 64 65 77 79 77 81 83 77 78 95 99 97 100 102 99 94 92 88 88 85 87 86 86 86
23 26 26 30 29 28 24 26 30 39 49 55 49 54 59 64 67 69 69 66 72 75 79 82 86 87 93 94 94 93 94 97 100 93 89 88 92 93 93 92 89 89 92